Home > Weather > Zhengzhou > Past weeks

Flag for China Past Weather in Zhengzhou, Henan, China — Yesterday and Last 2 Weeks

Now
77 °F

Overcast.


Feels Like: 78 °F
Forecast: 60 / 70 °F
Wind: 6 mph from Northwest

Location: Zhengzhou Airport

Current Time: May 26, 2016 at 3:09:04 PM

Latest Report: May 26, 2016 at 2:00 PM


Visibility: N/A

Pressure: 29.89 "Hg

Humidity: 39%

Dew Point: 50 °F

Location of ZhengzhouLocation

Past Weather in Zhengzhou — Graph

°F

Zhengzhou Temperature Yesterday

Maximum temperature yesterday: 86 °F (at 2:00 PM)
Minimum temperature yesterday: 68 °F (at 5:00 AM)
Average temperature yesterday: 77 °F

High & Low Weather Summary for the Past Weeks

 TemperatureHumidityPressure
High86 °F (May 11, 3:00 PM)94% (May 14, 9:00 AM)30.24 "Hg (May 14, 9:00 AM)
Low54 °F (May 13, 4:00 AM)14% (May 16, 1:00 PM)29.53 "Hg (May 11, 5:00 PM)
Average71 °F52%29.92 "Hg
* Reported May 11 2:00 PM — May 26 2:00 PM, Zhengzhou, Weather by CustomWeather, © 2016

Note: Actual official high and low records may vary slightly from our data, if they occured in-between our weather recording intervals... More about our weather records

Advertising

Zhengzhou Weather History for the Previous 24 Hours

Scroll right to see more
 ConditionsComfort  
Time TempWeatherWind HumidityBarometerVisibility
2:00 PM
Thu, May 26
77 °FOvercast.6 mph39%29.89 "HgN/A
1:00 PM79 °FOvercast.3 mph30%29.89 "HgN/A
12:00 PM75 °FOvercast.8 mph34%29.89 "HgN/A
11:00 AM73 °FLight rain. Overcast.10 mph33%29.92 "HgN/A
10:00 AM73 °FSunny.13 mph33%29.89 "Hg10 mi
9:00 AM72 °FSunny.8 mph36%29.89 "Hg10 mi
8:00 AM70 °FSunny.10 mph38%29.89 "Hg10 mi
7:00 AM70 °FSunny.8 mph38%29.86 "Hg10 mi
6:00 AM70 °FSunny.10 mph35%29.86 "Hg10 mi
5:00 AM70 °FClear.8 mph38%29.86 "Hg10 mi
4:00 AM70 °FClear.10 mph38%29.86 "Hg10 mi
3:00 AM70 °FClear.13 mph38%29.86 "Hg10 mi
2:00 AM70 °FClear.10 mph38%29.86 "Hg10 mi
1:00 AM72 °FClear.10 mph36%29.86 "Hg10 mi
12:00 AM73 °FClear.10 mph33%29.89 "Hg10 mi
11:00 PM
Wed, May 25
73 °FClear.6 mph36%29.89 "Hg10 mi
10:00 PM73 °FClear.6 mph33%29.86 "Hg10 mi
9:00 PM75 °FPassing clouds.10 mph29%29.86 "HgN/A
8:00 PM77 °FPassing clouds.10 mph28%29.83 "HgN/A
7:00 PM79 °FSunny.13 mph28%29.80 "Hg10 mi
6:00 PM81 °FPassing clouds.13 mph24%29.77 "HgN/A
5:00 PM84 °FSunny.13 mph23%29.77 "Hg10 mi
4:00 PM84 °FPassing clouds.10 mph22%29.77 "HgN/A
3:00 PM86 °FPassing clouds.10 mph22%29.77 "HgN/A
Weather by CustomWeather, © 2016

See weather overviewHow to use our weather pages